Location: Ward Pound Ridge Reservation
(41.2500°N, 73.6000°W)
Time: 19:24:09
(UTC-04:00)

ISS - Pass Details

Date: 16 October 2017
Orbit: 401 x 408 km, 51.6° (Epoch: 21 October)

Event Time Altitude Azimuth Distance (km) Brightness Sun altitude
Rises 19:18:29 0° 295° (WNW) 2,323 1.3 -13.3°
Reaches altitude 10° 19:20:51 10° 279° (W) 1,461 0.4 -13.8°
Maximum altitude 19:23:28 22° 226° (SW) 936 -1.4 -14.3°
Drops below altitude 10° 19:26:04 10° 173° (S) 1,456 -1.1 -14.7°
Enters shadow 19:27:33 - 162° (SSE) 1,981 -0.5 -15.0°
